Location: Unspecified
(38.9820°N, 94.4650°W)
Time: 13:57:20
(UTC-05:00)

CZ-3 Stage 3 - Visible Passes

Search period start: 27 September 2016 00:00
Search period end: 07 October 2016 00:00
Orbit: 490 x 34713 km, 30.6° (Epoch: 25 September)

Date Brightness Start Highest point End Pass type
(mag) Time Alt. Az. Time Alt. Az. Time Alt. Az.
28 Sep 7.8 06:23:55 10° ESE 12:17:26 57° ESE 13:34:43 10° E visible
29 Sep 9.9 07:34:54 10° E 08:31:38 13° E 09:11:12 10° ENE visible
29 Sep 5.5 19:26:25 10° WNW 20:34:37 35° SW 20:42:33 10° SSE visible
01 Oct 7.9 06:09:42 10° ESE 12:07:37 58° ESE 13:26:14 10° E visible
02 Oct 9.9 07:18:39 10° E 08:21:55 14° E 09:04:44 10° ENE visible
02 Oct 5.6 19:16:10 10° WNW 20:25:51 34° SW 20:33:55 10° S visible
04 Oct 7.9 05:55:32 10° ESE 11:57:44 58° ESE 13:17:43 10° E visible
05 Oct 9.9 07:02:47 10° E 08:12:09 14° E 08:57:54 10° ENE visible
05 Oct 5.7 11:55:42 10° SW 20:17:02 33° SW 20:25:17 10° S visible
